Skip Page Navigation
NASA JPL Caltech
NASA Logo - Jet Propulsion Laboratory + View the NASA Portal
+ Center for Near-Earth Object Studies
JPL Home Earth Solar System Stars & Galaxies Technology
JPL Solar System Dynamics
BODIES ORBITS EPHEMERIDES TOOLS PHYSICAL DATA DISCOVERY FAQ SITE MAP

Significant website upgrade scheduled for September 27. More details available here.

JPL Small-Body Database Browser
Search: [ help ]  
514107 Ka`epaoka`awela (2015 BZ509)
Classification: Asteroid          SPK-ID: 2514107
Ephemeris | Orbit Diagram | Orbital Elements | Mission Design | Physical Parameters | Discovery Circumstances | Close-Approach Data ]

[ show orbit diagram ]
Orbital Elements at Epoch 2459396.5 (2021-Jul-01.0) TDB
Reference: JPL 8 (heliocentric ecliptic J2000)
 Element Value Uncertainty (1-sigma)   Units 
e .3782810873489981 9.0481e-07  
a 5.129803102015984 7.611e-06 au
q 3.189295606699114 2.915e-07 au
i 163.1275484869461 1.0118e-05 deg
node 307.7442721234926 2.5046e-05 deg
peri 257.3222452743452 4.1314e-05 deg
M 168.6908862756394 0.00038441 deg
tp 2457407.940501336287
(2016-Jan-20.44050134)
0.00021119 TDB
period 4243.746863414974
11.62
0.0094445
2.586e-05
d
yr
n .08483069598319666 1.8879e-07 deg/d
Q 7.070310597332854 1.049e-05 au
  Orbit Determination Parameters
   # obs. used (total)      71  
   data-arc span      1026 days (2.81 yr)  
   first obs. used      2014-11-26  
   last obs. used      2017-09-17  
   planetary ephem.      DE441  
   SB-pert. ephem.      SB441-N16  
   condition code      2  
   norm. resid. RMS      .56958  
   source      ORB  
   producer      Otto Matic  
   solution date      2021-Apr-14 18:51:31  

Additional Information
 Earth MOID = 2.25758 au 
 Jupiter MOID = .223745 au 
 T_jup = -0.745 
[ show covariance matrix ]

Ephemeris | Orbit Diagram | Orbital Elements | Mission Design | Physical Parameters | Discovery Circumstances | Close-Approach Data ]

Physical Parameter Table
Parameter Symbol Value Units Sigma Reference Notes
absolute magnitude H 16.0   n/a MPO435420  

514107 Ka`epaoka`\=awela           Discovered 2014 Nov. 26 by Pan-STARRS 1 at Haleakala.
In the Hawaiian language Ka`epaoka`\=awela means the mischievous opposite-moving companion of Jupiter, evoking the image of a retrograde object of unknown origin. He hoa h\={o}k\={u}na`i `e`epa no Ka`\=awela e holo `\={e}ko`a ana ma ka poe l\=a. Name conceived by A Hua He Inoa, `Imiloa Astronomy Center of Hawai`i.
NOTE: some special characters may not display properly (any characters within {} are an attempt to place the proper accent above a character)
Reference: MPC batch dated 2018-10-26Last Updated: 2019-04-09

